EW7659 Weather Reports


time (UTC)temp
F
wind
direction
speed
knots
gust
knots
rain 1hr
in
rain 24hr
in
rain mn
in
humidity
%
barometer
mb
20260905045326 81 176 0.0 0.0 0.00 0.00 0.00 65 1007.7
20260905044602 81 176 0.0 0.0 0.00 0.00 0.00 65 1007.6
20260905044102 81 176 0.0 0.0 0.00 0.00 0.00 65 1007.6
20260905043602 81 176 0.0 0.0 0.00 0.00 0.00 65 1007.6
20260905043101 82 176 0.0 0.0 0.00 0.00 0.00 64 1007.7
20260905042827 82 176 0.0 0.0 0.00 0.00 0.00 63 1007.7
20260905042102 82 176 0.0 0.0 0.00 0.00 0.00 63 1007.7
20260905041805 83 176 0.0 0.0 0.00 0.00 0.00 62 1007.6
20260905041754 82 176 0.0 0.0 0.00 0.00 0.00 63 1007.7
20260905040602 83 176 0.0 0.0 0.00 0.00 0.00 62 1007.6
20260905035602 83 176 0.0 0.0 0.00 0.00 0.00 60 1007.7
20260905035325 83 176 0.0 0.0 0.00 0.00 0.00 60 1007.7
20260905034601 84 176 0.0 0.0 0.00 0.00 0.00 59 1007.6
20260905034100 84 176 0.0 0.0 0.00 0.00 0.00 59 1007.6
20260905033601 84 176 0.0 0.0 0.00 0.00 0.00 59 1007.6
20260905033544 84 176 0.0 0.0 0.00 0.00 0.00 58 1007.5
20260905032600 85 176 0.0 0.0 0.00 0.00 0.00 58 1007.5
20260905032100 85 176 0.0 0.0 0.00 0.00 0.00 57 1007.5
20260905031559 85 176 0.0 0.0 0.00 0.00 0.00 56 1007.5
20260905031058 85 176 0.0 0.0 0.00 0.00 0.00 56 1007.5
20260905031045 86 176 0.0 0.0 0.00 0.00 0.00 56 1007.5
20260905030056 86 176 0.0 0.0 0.00 0.00 0.00 55 1007.4
20260905025555 86 176 0.0 0.0 0.00 0.00 0.00 54 1007.4
20260905025052 87 176 0.0 0.0 0.00 0.00 0.00 54 1007.3
20260905024816 87 176 0.0 0.0 0.00 0.00 0.00 53 1007.3
20260905024049 87 176 0.0 0.0 0.00 0.00 0.00 52 1007.2
20260905023548 88 176 0.0 0.0 0.00 0.00 0.00 51 1007.0
20260905023308 88 176 0.0 0.0 0.00 0.00 0.00 51 1006.9
20260905022547 88 176 0.0 0.0 0.00 0.00 0.00 50 1006.9
20260905022045 88 176 0.0 0.0 0.00 0.00 0.00 50 1006.8
20260905022008 89 176 0.0 0.0 0.00 0.00 0.00 49 1006.6
20260905021740 89 176 0.0 0.0 0.00 0.00 0.00 50 1006.7
20260905020538 89 176 0.0 0.0 0.00 0.00 0.00 49 1006.4
20260905020036 89 176 0.0 0.0 0.00 0.00 0.00 49 1006.3
20260905015534 90 176 0.0 0.0 0.00 0.00 0.00 48 1006.2
20260905015032 90 176 0.0 0.0 0.00 0.00 0.00 48 1006.2
20260905014529 90 176 0.0 0.0 0.00 0.00 0.00 47 1006.1
20260905014035 90 176 0.0 0.9 0.00 0.00 0.00 47 1006.1
20260905013532 91 176 0.0 0.9 0.00 0.00 0.00 46 1006.1
20260905013025 91 176 0.0 0.0 0.00 0.00 0.00 46 1006.0
20260905012647 92 176 0.0 0.0 0.00 0.00 0.00 45 1006.0
20260905012643 92 176 0.0 0.0 0.00 0.00 0.00 45 1006.0
20260905012633 91 176 0.0 0.0 0.00 0.00 0.00 46 1006.0
20260905010957 92 176 0.0 0.0 0.00 0.00 0.00 44 1005.9
20260905010450 93 176 0.0 0.0 0.00 0.00 0.00 44 1005.9
20260905005950 93 176 0.0 0.0 0.00 0.00 0.00 44 1005.9
20260905005448 94 176 0.0 0.0 0.00 0.00 0.00 43 1005.9
20260905004946 94 176 0.0 0.0 0.00 0.00 0.00 43 1005.9
20260905004712 94 176 0.0 0.0 0.00 0.00 0.00 43 1005.8
20260905004211 94 176 0.0 0.0 0.00 0.00 0.00 43 1005.9
20260905003440 94 176 0.0 0.0 0.00 0.00 0.00 43 1005.9
20260905002938 95 176 0.0 0.9 0.00 0.00 0.00 43 1005.9
20260905002436 95 176 0.0 1.7 0.00 0.00 0.00 43 1006.0
20260905001934 95 177 0.0 2.6 0.00 0.00 0.00 43 1006.0
20260905001435 95 177 0.0 2.6 0.00 0.00 0.00 42 1005.9
20260905001159 96 184 0.0 1.7 0.00 0.00 0.00 42 1005.9
20260905000655 96 185 0.0 6.1 0.00 0.00 0.00 42 1005.9
20260904235934 96 165 0.0 6.1 0.00 0.00 0.00 41 1005.8
20260904235433 96 165 0.0 6.1 0.00 0.00 0.00 41 1005.9
20260904234930 96 171 0.0 6.1 0.00 0.00 0.00 41 1005.9
20260904234428 97 193 0.0 2.6 0.00 0.00 0.00 41 1005.9
20260904233930 97 184 0.0 0.9 0.00 0.00 0.00 42 1005.8
20260904233429 97 165 0.0 0.0 0.00 0.00 0.00 42 1005.8
20260904232929 97 165 0.0 0.9 0.00 0.00 0.00 42 1005.9
20260904232433 97 167 0.0 7.0 0.00 0.00 0.00 42 1005.8
20260904231931 97 165 0.0 7.0 0.00 0.00 0.00 42 1005.8
20260904231426 97 164 0.0 0.9 0.00 0.00 0.00 42 1005.8
20260904230924 97 171 0.9 8.7 0.00 0.00 0.00 42 1005.8
20260904230424 98 154 0.9 10.4 0.00 0.00 0.00 41 1005.8
20260904225924 98 170 0.0 10.4 0.00 0.00 0.00 41 1005.8
20260904225424 98 175 0.0 2.6 0.00 0.00 0.00 41 1005.8
20260904224925 98 181 0.0 8.7 0.00 0.00 0.00 42 1005.9
20260904224422 98 155 0.0 8.7 0.00 0.00 0.00 41 1005.8
20260904224133 98 180 0.0 7.8 0.00 0.00 0.00 41 1005.8
20260904224126 98 168 0.0 7.8 0.00 0.00 0.00 41 1005.8
20260904222916 98 163 0.9 5.2 0.00 0.00 0.00 41 1005.8
20260904222416 98 158 0.9 4.3 0.00 0.00 0.00 40 1005.7
20260904222136 98 155 0.0 4.3 0.00 0.00 0.00 40 1005.8
20260904221416 98 169 0.0 4.3 0.00 0.00 0.00 41 1005.8
20260904220916 99 180 0.0 4.3 0.00 0.00 0.00 41 1005.8
20260904220416 99 169 0.0 6.1 0.00 0.00 0.00 41 1005.9
20260904215916 99 196 0.9 10.4 0.00 0.00 0.00 41 1005.9
20260904215414 99 152 0.9 10.4 0.00 0.00 0.00 41 1005.9
20260904214912 99 162 0.9 8.7 0.00 0.00 0.00 41 1005.9
20260904214411 99 178 0.9 8.7 0.00 0.00 0.00 41 1006.0
20260904213912 99 132 0.0 7.8 0.00 0.00 0.00 41 1006.0
20260904213631 98 142 0.9 7.8 0.00 0.00 0.00 41 1006.0
20260904212912 98 155 0.0 5.2 0.00 0.00 0.00 41 1006.1
20260904212412 98 194 0.9 13.0 0.00 0.00 0.00 41 1006.2
20260904211912 98 167 0.9 13.0 0.00 0.00 0.00 41 1006.2
20260904211412 98 136 0.0 7.0 0.00 0.00 0.00 41 1006.2
20260904210910 98 115 0.0 6.1 0.00 0.00 0.00 42 1006.2
20260904210637 98 149 0.9 6.1 0.00 0.00 0.00 42 1006.3
20260904205910 98 189 0.0 6.1 0.00 0.00 0.00 41 1006.4
20260904205410 98 153 0.9 6.1 0.00 0.00 0.00 41 1006.4
20260904204910 98 121 0.0 5.2 0.00 0.00 0.00 42 1006.5
20260904204410 98 183 0.0 4.3 0.00 0.00 0.00 41 1006.6
20260904203907 98 177 0.9 7.0 0.00 0.00 0.00 42 1006.6
20260904203406 98 175 0.0 7.0 0.00 0.00 0.00 42 1006.5
20260904202906 97 123 0.9 10.4 0.00 0.00 0.00 43 1006.6
20260904202406 97 170 1.7 10.4 0.00 0.00 0.00 43 1006.7
20260904202123 97 188 0.9 8.7 0.00 0.00 0.00 43 1006.7
20260904201405 97 158 0.9 7.8 0.00 0.00 0.00 43 1006.9
20260904200906 97 166 0.9 7.8 0.00 0.00 0.00 43 1006.9
20260904200406 97 181 0.9 8.7 0.00 0.00 0.00 43 1006.9
20260904195906 97 165 1.7 12.2 0.00 0.00 0.00 43 1007.0
20260904195406 97 149 1.7 12.2 0.00 0.00 0.00 43 1007.2
20260904195126 97 192 1.7 11.3 0.00 0.00 0.00 43 1007.2
20260904194628 97 198 1.7 11.3 0.00 0.00 0.00 42 1007.2
20260904193906 97 253 0.9 9.6 0.00 0.00 0.00 43 1007.2
20260904193856 97 174 0.9 9.6 0.00 0.00 0.00 44 1007.2
20260904192907 97 142 0.9 7.0 0.00 0.00 0.00 44 1007.3
20260904192402 97 177 0.9 10.4 0.00 0.00 0.00 42 1007.3
20260904191902 97 161 0.0 10.4 0.00 0.00 0.00 43 1007.3
20260904191402 97 169 0.0 7.8 0.00 0.00 0.00 44 1007.4
20260904190901 96 171 1.7 11.3 0.00 0.00 0.00 44 1007.4
20260904190402 96 163 1.7 11.3 0.00 0.00 0.00 44 1007.5
20260904185902 97 159 0.9 7.8 0.00 0.00 0.00 44 1007.5
20260904185627 97 165 0.0 7.8 0.00 0.00 0.00 44 1007.6
20260904185348 96 167 0.9 7.8 0.00 0.00 0.00 44 1007.7
20260904184627 96 161 0.9 7.8 0.00 0.00 0.00 44 1007.7
20260904184124 96 174 0.9 7.8 0.00 0.00 0.00 44 1007.8
20260904183402 96 177 0.9 7.8 0.00 0.00 0.00 45 1007.9
20260904182902 96 192 0.9 7.8 0.00 0.00 0.00 45 1007.9
20260904182402 96 202 0.9 7.8 0.00 0.00 0.00 45 1008.0
20260904182124 95 175 0.9 10.4 0.00 0.00 0.00 46 1008.0
20260904181402 95 174 0.9 10.4 0.00 0.00 0.00 45 1008.1
20260904180902 95 194 0.9 9.6 0.00 0.00 0.00 45 1008.2
20260904180402 95 186 0.9 9.6 0.00 0.00 0.00 47 1008.1
20260904180133 94 188 2.6 9.6 0.00 0.00 0.00 46 1008.2
20260904175401 94 181 2.6 9.6 0.00 0.00 0.00 46 1008.2
20260904174902 94 157 0.9 9.6 0.00 0.00 0.00 46 1008.3
20260904174624 94 131 0.9 9.6 0.00 0.00 0.00 47 1008.4
20260904173923 94 140 0.9 6.1 0.00 0.00 0.00 46 1008.5
20260904173915 94 162 1.7 9.6 0.00 0.00 0.00 46 1008.5
20260904173130 94 115 0.0 7.8 0.00 0.00 0.00 46 1008.5
20260904172401 94 186 0.0 7.8 0.00 0.00 0.00 48 1008.5
20260904171902 94 237 1.7 13.0 0.00 0.00 0.00 47 1008.7
20260904171402 93 179 2.6 13.0 0.00 0.00 0.00 47 1008.8
20260904170901 93 176 1.7 10.4 0.00 0.00 0.00 48 1008.7
20260904170355 93 157 1.7 13.9 0.00 0.00 0.00 48 1008.8
20260904170331 93 162 0.9 13.9 0.00 0.00 0.00 48 1008.8
20260904165349 92 196 0.9 8.7 0.00 0.00 0.00 48 1008.9
20260904164848 92 144 0.9 10.4 0.00 0.00 0.00 50 1008.9
20260904164345 92 153 0.9 10.4 0.00 0.00 0.00 49 1009.0
20260904163844 92 184 0.0 7.0 0.00 0.00 0.00 50 1009.0
20260904163607 92 191 0.9 10.4 0.00 0.00 0.00 49 1009.0
20260904163325 91 207 1.7 10.4 0.00 0.00 0.00 49 1009.1
20260904162559 91 169 0.9 8.7 0.00 0.00 0.00 50 1009.0
20260904161838 91 140 0.9 10.4 0.00 0.00 0.00 50 1009.1
20260904161335 91 171 1.7 10.4 0.00 0.00 0.00 51 1009.0
20260904161331 90 150 0.9 9.6 0.00 0.00 0.00 51 1009.1
20260904160334 90 184 0.0 4.3 0.00 0.00 0.00 52 1009.1
20260904155834 90 163 0.0 6.1 0.00 0.00 0.00 52 1009.1
20260904155331 90 185 0.9 6.1 0.00 0.00 0.00 53 1009.0
20260904154832 89 190 0.0 5.2 0.00 0.00 0.00 53 1009.1
20260904154330 89 144 0.0 7.0 0.00 0.00 0.00 54 1009.1
20260904153829 89 144 0.0 7.0 0.00 0.00 0.00 55 1009.1
20260904153555 88 194 0.9 7.8 0.00 0.00 0.00 55 1009.1
20260904152830 88 155 0.9 8.7 0.00 0.00 0.00 57 1009.1
20260904152329 87 187 0.9 8.7 0.00 0.00 0.00 57 1009.2
20260904151825 87 164 0.0 8.7 0.00 0.00 0.00 59 1009.1
20260904151319 86 178 0.0 5.2 0.00 0.00 0.00 60 1009.1
20260904150813 86 167 0.9 9.6 0.00 0.00 0.00 60 1009.2
20260904150307 85 188 0.9 9.6 0.00 0.00 0.00 62 1009.1
20260904145807 85 165 0.0 6.1 0.00 0.00 0.00 63 1009.2
20260904145308 85 181 0.0 6.1 0.00 0.00 0.00 64 1009.2
20260904144808 84 163 0.9 9.6 0.00 0.00 0.00 64 1009.2
20260904144530 84 195 0.9 9.6 0.00 0.00 0.00 64 1009.2
20260904143808 84 165 0.0 4.3 0.00 0.00 0.00 66 1009.1
20260904143306 83 169 0.0 3.5 0.00 0.00 0.00 66 1009.2
20260904143024 83 173 0.0 1.7 0.00 0.00 0.00 67 1009.2
20260904142305 83 193 0.0 7.0 0.00 0.00 0.00 69 1009.3
20260904141801 82 196 0.0 7.0 0.00 0.00 0.00 69 1009.3
20260904141301 82 182 0.0 5.2 0.00 0.00 0.00 70 1009.3
20260904140801 82 194 0.0 1.7 0.00 0.00 0.00 70 1009.2
20260904140301 81 168 0.0 1.7 0.00 0.00 0.00 71 1009.2
20260904140024 81 163 0.0 1.7 0.00 0.00 0.00 72 1009.2
20260904135754 80 184 0.0 0.9 0.00 0.00 0.00 73 1009.2
20260904134801 80 172 0.0 0.9 0.00 0.00 0.00 74 1009.3
20260904134302 80 169 0.0 0.9 0.00 0.00 0.00 75 1009.3
20260904133802 79 165 0.0 0.0 0.00 0.00 0.00 76 1009.3
20260904133307 79 165 0.0 0.0 0.00 0.00 0.00 77 1009.3
20260904133027 78 166 0.0 0.0 0.00 0.00 0.00 78 1009.3
20260904132301 78 166 0.0 0.0 0.00 0.00 0.00 78 1009.3
20260904131801 78 169 0.0 0.9 0.00 0.00 0.00 78 1009.1
20260904131301 77 169 0.0 0.9 0.00 0.00 0.00 79 1009.1
20260904131025 77 171 0.0 0.0 0.00 0.00 0.00 80 1009.0
20260904130523 76 172 0.0 0.0 0.00 0.00 0.00 80 1009.0
20260904125801 76 172 0.0 0.0 0.00 0.00 0.00 81 1009.0
20260904125301 76 171 0.0 0.0 0.00 0.00 0.00 82 1009.0
20260904125022 75 170 0.0 0.0 0.00 0.00 0.00 82 1009.0
20260904124523 75 171 0.0 0.0 0.00 0.00 0.00 83 1009.0
20260904124249 75 171 0.0 0.0 0.00 0.00 0.00 83 1009.0
20260904123301 75 171 0.0 0.0 0.00 0.00 0.00 83 1009.0
20260904122802 75 171 0.0 0.0 0.00 0.00 0.00 82 1008.8
20260904122302 75 171 0.0 0.0 0.00 0.00 0.00 82 1008.8
20260904121801 75 171 0.0 0.0 0.00 0.00 0.00 82 1008.8
20260904121301 75 171 0.0 0.0 0.00 0.00 0.00 81 1008.8
20260904120801 75 171 0.0 0.0 0.00 0.00 0.00 81 1008.9
20260904120301 75 171 0.0 0.0 0.00 0.00 0.00 81 1008.9
20260904120017 75 171 0.0 0.0 0.00 0.00 0.00 81 1008.8
20260904115300 75 171 0.0 0.0 0.00 0.00 0.00 81 1008.8
20260904114801 76 171 0.0 0.0 0.00 0.00 0.00 80 1008.7
20260904114302 76 171 0.0 0.0 0.00 0.00 0.00 80 1008.7
20260904113800 76 171 0.0 0.0 0.00 0.00 0.00 80 1008.6
20260904113302 76 171 0.0 0.0 0.00 0.00 0.00 80 1008.5
20260904112801 76 171 0.0 1.7 0.00 0.00 0.00 80 1008.4
20260904112305 76 171 0.0 1.7 0.00 0.00 0.00 79 1008.4
20260904111800 76 171 0.0 0.9 0.00 0.00 0.00 79 1008.3
20260904111524 76 171 0.0 0.9 0.00 0.00 0.00 79 1008.4
20260904111019 76 171 0.0 0.0 0.00 0.00 0.00 79 1008.3
20260904110301 76 171 0.0 0.0 0.00 0.00 0.00 79 1008.3
20260904105801 76 171 0.0 0.0 0.00 0.00 0.00 79 1008.3
20260904105301 76 171 0.0 0.0 0.00 0.00 0.00 79 1008.4
20260904104801 76 171 0.0 0.0 0.00 0.00 0.00 79 1008.3
20260904104301 76 171 0.0 0.0 0.00 0.00 0.00 79 1008.3
20260904103755 76 171 0.0 0.0 0.00 0.00 0.00 78 1008.3
20260904103249 76 171 0.0 0.0 0.00 0.00 0.00 78 1008.4
20260904102749 76 171 0.0 0.0 0.00 0.00 0.00 78 1008.3
20260904102509 76 171 0.0 0.0 0.00 0.00 0.00 78 1008.3
20260904102003 76 171 0.0 0.0 0.00 0.00 0.00 77 1008.2
20260904101247 77 171 0.0 0.0 0.00 0.00 0.00 77 1008.2
20260904100745 77 171 0.0 0.0 0.00 0.00 0.00 77 1008.1
20260904100243 77 171 0.0 0.0 0.00 0.00 0.00 77 1008.2
20260904095741 77 171 0.0 0.0 0.00 0.00 0.00 76 1008.2
20260904095240 77 171 0.0 0.0 0.00 0.00 0.00 76 1008.2
20260904094742 77 171 0.0 1.7 0.00 0.00 0.00 76 1008.1
20260904094238 77 171 0.0 1.7 0.00 0.00 0.00 76 1008.0
20260904093737 77 171 0.0 0.0 0.00 0.00 0.00 76 1007.9
20260904093235 77 171 0.0 0.0 0.00 0.00 0.00 76 1007.9
20260904092733 77 171 0.0 0.0 0.00 0.00 0.00 76 1007.8
20260904092453 77 170 0.0 0.0 0.00 0.00 0.00 76 1007.8
20260904092210 77 171 0.0 0.0 0.00 0.00 0.00 75 1007.7
20260904091229 78 171 0.0 0.0 0.00 0.00 0.00 75 1007.7
20260904090729 77 171 0.0 0.0 0.00 0.00 0.00 75 1007.7
20260904090230 78 171 0.0 0.9 0.00 0.00 0.00 75 1007.7
20260904085729 78 180 0.0 0.9 0.00 0.00 0.00 75 1007.6
20260904085229 78 180 0.0 0.0 0.00 0.00 0.00 75 1007.6
20260904085219 78 180 0.0 1.7 0.00 0.00 0.00 75 1007.5
20260904084229 78 180 0.0 1.7 0.00 0.00 0.00 75 1007.6
20260904083729 78 180 0.0 0.0 0.00 0.00 0.00 75 1007.5
20260904083229 78 180 0.0 0.0 0.00 0.00 0.00 74 1007.5
20260904082729 78 180 0.0 0.9 0.00 0.00 0.00 74 1007.4
20260904082229 78 180 0.0 0.9 0.00 0.00 0.00 74 1007.4
20260904081729 78 180 0.0 3.5 0.00 0.00 0.00 74 1007.4
20260904081229 78 180 0.0 3.5 0.00 0.00 0.00 74 1007.4
20260904080729 78 180 0.0 0.0 0.00 0.00 0.00 74 1007.3
20260904080229 78 180 0.0 0.0 0.00 0.00 0.00 74 1007.4
20260904075729 78 180 0.0 0.0 0.00 0.00 0.00 74 1007.4
20260904075229 78 180 0.0 0.0 0.00 0.00 0.00 74 1007.4
20260904074729 78 180 0.0 0.0 0.00 0.00 0.00 74 1007.4
20260904074229 78 180 0.0 0.0 0.00 0.00 0.00 73 1007.3
20260904073729 78 180 0.0 0.0 0.00 0.00 0.00 73 1007.3
20260904073229 79 180 0.0 0.0 0.00 0.00 0.00 73 1007.3
20260904072729 79 180 0.0 0.0 0.00 0.00 0.00 73 1007.3
20260904072229 79 180 0.0 0.0 0.00 0.00 0.00 73 1007.3
20260904071729 79 180 0.0 0.0 0.00 0.00 0.00 72 1007.4
20260904071229 79 180 0.0 0.0 0.00 0.00 0.00 72 1007.4
20260904070726 79 180 0.0 0.0 0.00 0.00 0.00 72 1007.5
20260904070227 79 180 0.0 0.0 0.00 0.00 0.00 72 1007.5
20260904065727 79 180 0.0 0.0 0.00 0.00 0.00 72 1007.5
20260904065227 79 180 0.0 0.0 0.00 0.00 0.00 72 1007.5
20260904064727 79 180 0.0 0.9 0.00 0.00 0.00 71 1007.5
20260904064452 79 180 0.0 1.7 0.00 0.00 0.00 71 1007.6
20260904063730 80 180 0.0 1.7 0.00 0.00 0.00 71 1007.6
20260904063228 80 180 0.0 0.9 0.00 0.00 0.00 71 1007.6
20260904062949 80 180 0.0 0.9 0.00 0.00 0.00 70 1007.6
20260904062223 80 180 0.0 0.9 0.00 0.00 0.00 70 1007.6
20260904061723 80 180 0.0 0.9 0.00 0.00 0.00 70 1007.6
20260904061439 80 180 0.0 0.9 0.00 0.00 0.00 70 1007.7
20260904060722 80 180 0.0 0.0 0.00 0.00 0.00 69 1007.7
20260904060223 80 180 0.0 0.0 0.00 0.00 0.00 69 1007.6
20260904055942 80 180 0.0 0.0 0.00 0.00 0.00 69 1007.6
20260904055223 81 180 0.0 0.0 0.00 0.00 0.00 68 1007.5
20260904054723 81 180 0.0 0.0 0.00 0.00 0.00 68 1007.5
20260904054224 81 180 0.0 0.0 0.00 0.00 0.00 67 1007.5
20260904053716 81 180 0.0 0.0 0.00 0.00 0.00 67 1007.4
20260904053210 81 180 0.0 0.0 0.00 0.00 0.00 67 1007.3
20260904052930 81 180 0.0 0.0 0.00 0.00 0.00 66 1007.3
20260904052422 82 180 0.0 0.0 0.00 0.00 0.00 66 1007.3
20260904051921 82 180 0.0 0.0 0.00 0.00 0.00 66 1007.3
20260904051202 82 180 0.0 0.0 0.00 0.00 0.00 65 1007.3
20260904050702 82 180 0.0 0.0 0.00 0.00 0.00 65 1007.3
20260904050203 82 180 0.0 0.0 0.00 0.00 0.00 65 1007.2
20260904045703 83 180 0.0 0.0 0.00 0.00 0.00 64 1007.2